Regional Weather Roundup
Issued by NWS Wakefield, VA

Home | Current Version | Previous Version | Graphics & Text | Print | Product List | Glossary On
Versions: 1 2 3 4 5 6 7 8 9 10 11 12 13 14 15 16 17 18 19 20 21 22 23 24 25 26 27 28
000
ASUS41 KAKQ 260515
RWRAKQ

REGIONAL WEATHER ROUNDUP
NATIONAL WEATHER SERVICE WAKEFIELD VA
100 AM EDT THU MAY 26 2016

Note: "fair" indicates few or no clouds below 12,000 feet with no
significant weather and/or obstructions to visibility. * = Denotes
station may not report precipitation (e.g., rain,snow,etc.),
thunder or fog.

VAZ042-051-052>054-056-260600-
NORTHERN VIRGINIA

CITY           SKY/WX    TMP DP  RH WIND       PRES   REMARKS
WASH NATIONAL  MOCLDY    65  61  87 S8        30.12S
DULLES         MOCLDY    62  58  86 CALM      30.12S
FORT BELVOIR   FAIR      60  58  94 CALM      30.12S FOG
QUANTICO       FAIR      64  61  90 NW6       30.13S
FREDERICKSBRG* NOT AVBL
STAFFORD*      FAIR      57  56  94 CALM      30.17R
WARRENTON      FAIR      59  54  82 CALM      30.12F
CULPEPER*      FAIR      60  60  99 CALM      30.13F
MANASSAS*      FAIR      59  59 100 CALM      30.13S
LEESBURG*      FAIR      63  61  94 CALM      30.13S
WINCHESTER     FAIR      61  55  82 CALM      30.12F
FRONT ROYAL*   FAIR      63  55  77 CALM      30.12F
LURAY*         FAIR      59  59 100 CALM      30.15S
$$

VAZ048-049-060>072-079>083-260600-
CENTRAL AND SOUTH CENTRAL VIRGINIA

CITY           SKY/WX    TMP DP  RH WIND       PRES   REMARKS
RICHMOND       FAIR      64  58  80 CALM      30.13S
CHESTERFIELD*  FAIR      61  48  63 CALM      30.15S
PETERSBURG*    FAIR      59  59 100 CALM      30.14F FOG
HANOVER        FAIR      61  56  83 CALM      30.14S
TAPPAHANNOCK*  FAIR      61  61 100 CALM      30.14S
QUINTON*       FAIR      61  60  97 CALM      30.13S
CHARLOTTSVILLE FAIR      67  57  70 CALM      30.13F
GORDONSVILLE*  FAIR      60  59  97 CALM      30.13S
ORANGE*        FAIR      61  61 100 CALM      30.15S
LOUISA*          N/A    N/A N/A N/A MISG      30.13S
BUMPASS*       FAIR      62  59  90 CALM      30.13S
FARMVILLE*     FAIR      61  61 100 CALM      30.13S
CREWE*         FAIR      59  59 100 CALM      30.14S
FORT PICKETT*  NOT AVBL
CHASE CITY*    FAIR      62  61  95 CALM      30.15S
CLARKSVILLE*   FAIR      61  61 100 CALM      30.15S
SOUTH HILL*    FAIR      58  58  98 CALM      30.21S
LAWRENCEVILLE* FAIR      64  61  89 CALM      30.15S
EMPORIA*       FAIR      61  59  94 SE3       30.17R
$$

VAZ088>098-260600-
SOUTHEAST VIRGINIA

CITY           SKY/WX    TMP DP  RH WIND       PRES   REMARKS
NORFOLK        FAIR      71  60  68 SW10      30.15R
VIRGINIA BEACH FAIR      75  59  57 SW9       30.15R
NORFOLK NAVAL  FAIR      73  60  63 SW9       30.16S
WEST POINT*    FAIR      61  59  94 CALM      30.15S
SALUDA*        FAIR      67  63  89 S3        30.13S
NEWPORT NEWS   FAIR      63  61  93 CALM      30.14S
LANGLEY AFB    FAIR      70  62  76 S10       30.14S
FORT EUSTIS    FAIR      66  58  74 S6        30.12S
WILLIAMSBURG*  FAIR      66  64  94 CALM      30.15R
HR EXEC AP*    FAIR     N/A N/A N/A SW7       30.18S
FRANKLIN*      FAIR      66  60  79 S7        30.16S
US460-WAKEFLD  FAIR      62  59  90 CALM      30.14S
$$

VAZ020-022-025-037-045-260600-
WEST CENTRAL AND SOUTHWEST VIRGINIA

CITY           SKY/WX    TMP DP  RH WIND       PRES   REMARKS
STAUNTON*      FAIR      59  56  89 CALM      30.18S
WAYNESBORO*    FAIR      62  55  77 CALM      30.17S
HOT SPRINGS VA FAIR      66  53  62 SW8       30.26F
LYNCHBURG      FAIR      63  56  78 CALM      30.16F
DANVILLE       FAIR      62  59  90 S3        30.15F
SOUTH BOSTON*  FAIR      61  59  95 CALM      30.15S
MARTINSVILLE   FAIR      57  57  99 CALM      30.19F
ROANOKE        FAIR      69  58  67 CALM      30.17F
BLACKSBURG     FAIR      62  58  87 CALM      30.24F
DUBLIN*        FAIR      64  59  84 CALM      30.22F
MARION*        FAIR      62  57  84 CALM      30.26F
HILLSVILLE*    FAIR      66  57  71 S5        30.23F
RICHLANDS*     CLOUDY    65  54  67 SE5       30.23F
WISE*          CLOUDY    68  50  52 S5        30.22F
ABINGDON*      CLOUDY    69  62  78 E3        30.21F
$$

MDZ021>025-VAZ099-100-260600-
SOUTHERN MARYLAND AND THE DELMARVA PENINSULA

CITY           SKY/WX    TMP DP  RH WIND       PRES   REMARKS
PATUXENT RIVER CLOUDY    65  57  75 SW3       30.12S
BAY BRIDGE APT CLOUDY    70  55  60 S7        30.11S
LEONARDTOWN    CLOUDY    63  55  77 CALM      30.14S
DOVER          CLOUDY    68  59  73 S6        30.10S
GEORGETOWN     CLOUDY    66  56  70 S3        30.13S
EASTON         CLOUDY    69  60  74 CALM      30.15S
CAMBRIDGE      CLOUDY    63  57  82 CALM      30.12S
SALISBURY      CLOUDY    62  56  80 CALM      30.13S
OCEAN CITY     CLEAR     64  59  83 SW3       30.13F
WALLOPS ISLAND FAIR      64  61  90 S8        30.14S
ACCOMACK*      FAIR      66  59  77 S6        30.14R
$$

NCZ012>017-030>032-260600-
NORTH CENTRAL AND EASTERN NORTH CAROLINA

CITY           SKY/WX    TMP DP  RH WIND       PRES   REMARKS
ROANOKE RAPIDS FAIR      64  61  88 S3        30.16S
RALEIGH        MOCLDY    67  59  75 CALM      30.16F
ELIZABETH CITY CLEAR     70  60  70 SW8       30.17S
AHOSKIE*       NOT AVBL
EDENTON*       CLEAR    N/A N/A N/A SW6       30.19R
CURRITUCK*     CLEAR     71  60  68 SW5       30.18R
KILL DEVIL HLS PTCLDY    69  61  74 S3        30.17S
MANTEO         MOCLDY    70  64  81 SW7       30.19S
CAPE HATTERAS  PTCLDY    71  66  84 SW7       30.21S
TARBORO*       FAIR      71  61  71 S5        30.18S
GOLDSBORO      PTCLDY    71  65  81 S5        30.17S
WASHINGTON     PTCLDY    68  59  73 S5        30.19S
GREENVILLE     PTCLDY    70  61  73 SW8       30.19S
NEW BERN       PTCLDY    68  65  90 SW6       30.21S
WILMINGTON     PTCLDY    71  66  84 S7        30.20F
$$

VAZ048-260600-
ELSEWHERE

CITY           SKY/WX    TMP DP  RH WIND       PRES   REMARKS
HARRISBURG PA  CLOUDY    69  52  54 E5        30.09R
BALTIMORE      CLOUDY    62  56  80 CALM      30.10F
ANNAPOLIS      CLOUDY    65  58  78 CALM      30.10F
ANDREWS AFB    FAIR      64  56  75 S6        30.11S
PHILADELPHIA   CLOUDY    70  55  59 SW7       30.10S
HENDERSON NC   CLEAR     63  57  81 SW3       30.16F
GREENSBORO     MOCLDY    69  58  67 SW3       30.17F
ROCKY MOUNT    PTCLDY    70  62  76 S8        30.17S
$$

VAZ100-260600-
MARINE

STATION/POSITION TIME  TEMP    WIND        PRES    WAVE   SWELL
                       AIR SEA DIR/SP/G            HT/PER HT/PER
                 (UTC) (F)     (DEG/KT/KT) (MB)    (FT/S) (FT/S)
BRANDYWINE LGT   0400   72     220/ 13/ 13 1019.8
CAPE MAY NJ      0400   70 67  200/  6/  8 1019.7
LEWES DE         0400   71 63  210/  6/  9 1019.8
15NM E FENWICK I 0450   62 57              1020.2F   2/ 9
OCEAN-CITY-INLET 0400   63 61  230/  5/  6 1020.9
WACHAPREAGUE VA  0400   69 71  220/  3/  6 1020.0
THOMAS POINT MD  0500   68 65  190/  9/ 10 1020.8F
GOOSES REEF MD   0500   68 65  180/  6/  6 1020.8S   1
COVE POINT MD    0400   67     190/  7/  7 1020.4
SOLOMONS ISLAND  0400   65 63   CALM  /  1   N/A
BISHOPS HEAD MD  0400   69 74  170/  5/  6 1020.2
PINEY POINT MD   0400          140/  4/  4   N/A
POTOMAC MD       0500   68 68  280/  2/  4 1019.2R   0
CAMBRIDGE MD     0400   71 64  190/  3/  5 1019.1
LEWISETTA VA     0400   71 70  240/  2/  3 1019.7
RAPPAHANNOCK LGT 0400          160/  7/  8 1020.8F
STINGRAY PT      0500   69 67  200/  6/  8 1020.6S   0
YORK RVR RNG VA  0400   70     190/  8/  9 1019.7
YORKTOWN VA      0400   69 66  140/  2/  3 1020.0
JAMESTOWN VA     0500   67 69   60/  2/  2   N/A     0
DOMINION TERM VA 0400   72     180/  7/  8 1020.7
KIPTOPEKE VA     0400      68  170/  5/  7   N/A
CHES BAY BRIDGE  0400   74 63  180/ 12/ 14 1020.6
CAPE HENRY VA    0400   73     200/ 10/ 13   N/A
CHESAPEAKE LGHT  0400   74     210/ 18/ 18 1021.1S
WILLOUBY STN VA  0400   75     190/ 12/ 13 1021.6
CAPE HENRY BUOY  0442      62                N/A     2/ 9
1ST LANDING BUOY 0500   70 67  210/ 10/ 10 1020.8R   1/ 3
CAPE CHARLES BUO 0456      62                N/A     2/ 9   2/ 9
OFFSHORE WE BUOY 0451      62                N/A     2/ 9   2/ 9
64NM E OF VA BCH 0450   64 58  210/ 10/ 12 1021.2R   3/ 8   2/ 8
DUCK PIER NC     0400   72 60  220/ 11/ 12 1021.2
44100 DUCK FRF   0454      66                N/A     2/10
44056 DUCK FRF   0441      63                N/A     2/ 8
OREGON INLET NC  0400   72 74  200/ 12/ 14 1022.1
HATTERAS NC      0400   71 72  210/  7/  9 1022.3
DIAMOND SHLS NC  0450   72 69  230/  8/  8 1022.8F   2/ 9   2/ 9
CAPE LOOKOUT NC  0500   72     C1F1C2F2C3F3C4F4C5F5C6F6C7F7C8M1C9!



USA.gov is the U.S. government's official web portal to all federal, state and local government web resources and services.